When you browse on this site, cookies collect data to enhance your experience and personalize the content and advertising you see.
Visit our Privacy Policy to learn more. By continuing to use the site, you agree to this use of cookies and data.
  • en France
  • Liste des pays
  • À 7 jours
  • Température de l'eau
  • Carte satellitaire
  • Carte météo
  • Widgets météo
  • user-avatar
    Se connecter

    Météo par heure à Hidib

    Ce jour, 11 Décembre, Mardi

    Heure Température Précipitation Vent Pression Humidité
    00:00 -5°C° 0 mm 3 m/s 599 mmHg 64%
    01:00 -5°C° 0 mm 3 m/s 599 mmHg 63%
    02:00 -5°C° 0 mm 3 m/s 599 mmHg 63%
    03:00 -4°C° 0 mm 2 m/s 599 mmHg 59%
    04:00 -3°C° 0 mm 2 m/s 599 mmHg 58%
    05:00 -4°C° 0 mm 3 m/s 599 mmHg 58%
    06:00 -4°C° 0 mm 3 m/s 599 mmHg 57%
    07:00 -2°C° 0 mm 3 m/s 599 mmHg 58%
    08:00 -1°C° 0 mm 3 m/s 600 mmHg 58%
    09:00 0°C° 0 mm 3 m/s 600 mmHg 56%
    10:00 +1°C° 0 mm 3 m/s 600 mmHg 57%
    11:00 +2°C° 0 mm 3 m/s 601 mmHg 58%
    12:00 +4°C° 0 mm 3 m/s 601 mmHg 59%
    13:00 +3°C° 0 mm 3 m/s 600 mmHg 62%
    14:00 +1°C° 0 mm 4 m/s 600 mmHg 64%
    15:00 +1°C° 0 mm 4 m/s 600 mmHg 66%
    16:00 0°C° 0 mm 4 m/s 599 mmHg 69%
    17:00 0°C° 0 mm 4 m/s 599 mmHg 72%
    18:00 -1°C° 0 mm 4 m/s 598 mmHg 75%
    19:00 -1°C° 0 mm 4 m/s 598 mmHg 75%
    20:00 -1°C° 0 mm 4 m/s 598 mmHg 75%
    21:00 0°C° 0 mm 3 m/s 598 mmHg 75%
    22:00 -1°C° 0 mm 3 m/s 598 mmHg 74%
    23:00 -1°C° 0 mm 3 m/s 598 mmHg 73%

    Demain, 12 Décembre, Mercredi

    Heure Température Précipitation Vent Pression Humidité
    00:00 -1°C° 0 mm 3 m/s 598 mmHg 72%
    01:00 -2°C° 0 mm 3 m/s 598 mmHg 73%
    02:00 -2°C° 0 mm 3 m/s 599 mmHg 74%
    03:00 -2°C° 0 mm 3 m/s 599 mmHg 75%
    04:00 -2°C° 0 mm 3 m/s 599 mmHg 76%
    05:00 -4°C° 0 mm 3 m/s 599 mmHg 78%
    06:00 -4°C° 0 mm 3 m/s 599 mmHg 79%
    07:00 -2°C° 0 mm 3 m/s 599 mmHg 73%
    08:00 -2°C° 0 mm 3 m/s 600 mmHg 67%
    09:00 -1°C° 0 mm 3 m/s 600 mmHg 61%
    10:00 0°C° 0.2 mm 3 m/s 600 mmHg 64%
    11:00 0°C° 0.2 mm 3 m/s 599 mmHg 66%
    12:00 +1°C° 0.2 mm 3 m/s 599 mmHg 69%
    13:00 +1°C° 0.8 mm 3 m/s 599 mmHg 70%
    14:00 +1°C° 0.8 mm 3 m/s 599 mmHg 72%
    15:00 +1°C° 0.8 mm 3 m/s 598 mmHg 74%
    16:00 0°C° 0.4 mm 3 m/s 598 mmHg 74%
    17:00 0°C° 0.4 mm 3 m/s 598 mmHg 75%
    18:00 -1°C° 0.4 mm 3 m/s 598 mmHg 76%
    19:00 -1°C° 0.2 mm 3 m/s 598 mmHg 77%
    20:00 -1°C° 0.2 mm 3 m/s 598 mmHg 77%
    21:00 -1°C° 0.2 mm 3 m/s 598 mmHg 78%
    22:00 -1°C° 0.3 mm 3 m/s 598 mmHg 79%
    23:00 -1°C° 0.3 mm 3 m/s 598 mmHg 79%

    Après-demain, 13 Décembre, Jeudi

    Heure Température Précipitation Vent Pression Humidité
    00:00 -2°C° 0.3 mm 3 m/s 599 mmHg 80%
    01:00 -2°C° 0.1 mm 3 m/s 599 mmHg 81%
    02:00 -2°C° 0.1 mm 3 m/s 599 mmHg 81%
    03:00 -2°C° 0.1 mm 3 m/s 599 mmHg 82%
    04:00 -4°C° 0.1 mm 3 m/s 599 mmHg 82%
    05:00 -4°C° 0.1 mm 3 m/s 598 mmHg 82%
    06:00 -5°C° 0.1 mm 3 m/s 598 mmHg 82%
    07:00 -5°C° 0.1 mm 3 m/s 599 mmHg 80%
    08:00 -4°C° 0.1 mm 3 m/s 599 mmHg 78%
    09:00 -3°C° 0.1 mm 2 m/s 600 mmHg 76%
    10:00 -4°C° 0.3 mm 3 m/s 600 mmHg 77%
    11:00 -2°C° 0.3 mm 3 m/s 600 mmHg 77%
    12:00 -2°C° 0.3 mm 3 m/s 600 mmHg 78%
    13:00 -2°C° 0.5 mm 3 m/s 601 mmHg 80%
    14:00 -4°C° 0.5 mm 3 m/s 601 mmHg 83%
    15:00 -4°C° 0.5 mm 3 m/s 601 mmHg 85%
    16:00 -4°C° 0.3 mm 2 m/s 602 mmHg 87%
    17:00 -4°C° 0.3 mm 2 m/s 602 mmHg 88%
    18:00 -5°C° 0.3 mm 2 m/s 602 mmHg 89%
    19:00 -6°C° 0 mm 2 m/s 602 mmHg 87%
    20:00 -7°C° 0 mm 2 m/s 602 mmHg 85%
    21:00 -8°C° 0 mm 2 m/s 602 mmHg 83%
    22:00 -8°C° 0 mm 2 m/s 602 mmHg 79%
    23:00 -8°C° 0 mm 2 m/s 602 mmHg 76%

    14 Décembre, Vendredi

    Heure Température Précipitation Vent Pression Humidité
    00:00 -9°C° 0 mm 2 m/s 602 mmHg 72%
    01:00 -9°C° 0 mm 2 m/s 603 mmHg 73%
    02:00 -9°C° 0 mm 2 m/s 603 mmHg 75%
    03:00 -9°C° 0 mm 2 m/s 603 mmHg 76%
    04:00 -10°C° 0 mm 2 m/s 603 mmHg 75%
    05:00 -10°C° 0 mm 2 m/s 603 mmHg 74%
    06:00 -10°C° 0 mm 2 m/s 603 mmHg 73%
    07:00 -9°C° 0 mm 2 m/s 604 mmHg 71%
    08:00 -8°C° 0 mm 2 m/s 604 mmHg 70%
    09:00 -7°C° 0 mm 2 m/s 605 mmHg 68%
    10:00 -6°C° 0 mm 2 m/s 605 mmHg 65%
    11:00 -5°C° 0 mm 2 m/s 605 mmHg 63%
    12:00 -4°C° 0 mm 2 m/s 605 mmHg 60%
    13:00 -4°C° 0 mm 2 m/s 605 mmHg 62%
    14:00 -5°C° 0 mm 2 m/s 605 mmHg 63%
    15:00 -5°C° 0 mm 2 m/s 605 mmHg 65%
    16:00 -6°C° 0.2 mm 2 m/s 605 mmHg 70%
    17:00 -6°C° 0.2 mm 2 m/s 604 mmHg 75%
    18:00 -7°C° 0.2 mm 2 m/s 604 mmHg 80%
    19:00 -7°C° 0.2 mm 2 m/s 604 mmHg 82%
    20:00 -7°C° 0.2 mm 2 m/s 605 mmHg 83%
    21:00 -7°C° 0.2 mm 2 m/s 605 mmHg 85%
    22:00 -6°C° 0.2 mm 1 m/s 605 mmHg 86%
    23:00 -6°C° 0.2 mm 1 m/s 605 mmHg 86%

    15 Décembre, Samedi

    Heure Température Précipitation Vent Pression Humidité
    00:00 -6°C° 0.2 mm 1 m/s 605 mmHg 87%
    01:00 -7°C° 0.1 mm 1 m/s 605 mmHg 88%
    02:00 -7°C° 0.1 mm 1 m/s 605 mmHg 88%
    03:00 -7°C° 0.1 mm 1 m/s 605 mmHg 88%
    04:00 -8°C° 0 mm 1 m/s 605 mmHg 87%
    05:00 -8°C° 0 mm 1 m/s 605 mmHg 86%
    06:00 -9°C° 0 mm 1 m/s 604 mmHg 84%
    07:00 -8°C° 0 mm 1 m/s 605 mmHg 81%
    08:00 -7°C° 0 mm 1 m/s 606 mmHg 77%
    09:00 -7°C° 0 mm 1 m/s 606 mmHg 73%
    10:00 -6°C° 0 mm 1 m/s 607 mmHg 71%
    11:00 -4°C° 0 mm 1 m/s 607 mmHg 68%
    12:00 -3°C° 0 mm 1 m/s 607 mmHg 66%
    13:00 -3°C° 0 mm 1 m/s 607 mmHg 67%
    14:00 -3°C° 0 mm 1 m/s 607 mmHg 69%
    15:00 -3°C° 0 mm 1 m/s 607 mmHg 71%
    16:00 -6°C° 0 mm 1 m/s 607 mmHg 73%
    17:00 -7°C° 0 mm 1 m/s 606 mmHg 75%
    18:00 -8°C° 0 mm 1 m/s 606 mmHg 76%
    19:00 -9°C° 0 mm 1 m/s 606 mmHg 73%
    20:00 -10°C° 0 mm 2 m/s 606 mmHg 69%
    21:00 -10°C° 0 mm 2 m/s 606 mmHg 66%
    22:00 -10°C° 0 mm 2 m/s 606 mmHg 64%
    23:00 -10°C° 0 mm 2 m/s 606 mmHg 63%

    16 Décembre, Dimanche

    Heure Température Précipitation Vent Pression Humidité
    00:00 -10°C° 0 mm 2 m/s 606 mmHg 61%
    01:00 -10°C° 0 mm 2 m/s 607 mmHg 62%
    02:00 -10°C° 0 mm 2 m/s 607 mmHg 62%
    03:00 -10°C° 0 mm 2 m/s 607 mmHg 62%
    04:00 -10°C° 0 mm 2 m/s 607 mmHg 61%
    05:00 -10°C° 0 mm 2 m/s 607 mmHg 60%
    06:00 -10°C° 0 mm 2 m/s 607 mmHg 59%
    07:00 -8°C° 0 mm 1 m/s 608 mmHg 58%
    08:00 -7°C° 0 mm 1 m/s 608 mmHg 56%
    09:00 -6°C° 0 mm 1 m/s 609 mmHg 55%
    10:00 -3°C° 0 mm 1 m/s 609 mmHg 54%
    11:00 -2°C° 0 mm 1 m/s 610 mmHg 53%
    12:00 -1°C° 0 mm 1 m/s 610 mmHg 52%
    13:00 -1°C° 0 mm 1 m/s 610 mmHg 56%
    14:00 -2°C° 0 mm 1 m/s 609 mmHg 60%
    15:00 -2°C° 0 mm 1 m/s 609 mmHg 64%
    16:00 -4°C° 0 mm 1 m/s 609 mmHg 63%
    17:00 -6°C° 0 mm 1 m/s 608 mmHg 62%
    18:00 -8°C° 0 mm 2 m/s 608 mmHg 62%
    19:00 -8°C° 0 mm 2 m/s 608 mmHg 60%
    20:00 -9°C° 0 mm 2 m/s 608 mmHg 58%
    21:00 -9°C° 0 mm 2 m/s 608 mmHg 57%
    22:00 -9°C° 0 mm 2 m/s 608 mmHg 56%
    23:00 -9°C° 0 mm 2 m/s 608 mmHg 56%
    Voir plus